Temperature
11 11 10 10 10 10 10 9 9 9 9 10 10 10 10 10 9 9 9 9 9 9 9 9 9 9 9 10 10 9 9 9 9 9 9 9 9 9 9 9 9 9 9
11 11 10 10 9 9 9 9 9 9 9 9 9 9 9 9 9 9 9 9 9 9 9 9 9 9 9 9 9 9 9 9 9 8 8 8 8 8 9 9 9 9 9
11 10 10 9 9 9 9 9 9 9 9 9 9 9 9 9 9 9 9 9 9 8 8 8 8 8 8 8 8 8 8 8 8 8 8 8 8 7 8 8 8 8 8
11 10 9 9 8 8 9 9 9 8 9 9 9 8 8 8 8 8 8 8 8 8 8 8 8 8 8 8 8 8 8 8 8 8 8 8 8 8 7 7 7 8 8
10 10 9 8 8 8 8 8 8 8 8 8 8 8 8 8 8 8 8 8 8 8 8 8 8 7 7 7 7 7 7 7 8 8 8 8 8 8 8 7 7 7 7
10 9 9 8 8 8 8 8 8 8 8 8 8 8 7 7 7 7 7 7 7 7 7 7 7 7 7 7 7 7 7 7 7 7 7 7 7 7 7 7 7 7 7
9 9 8 8 7 7 7 7 7 7 7 7 7 7 7 7 7 7 7 7 7 7 7 7 7 7 7 7 7 7 7 7 7 7 7 7 7 7 7 7 7 6 6
9 8 8 7 7 7 7 7 7 7 7 7 7 7 7 7 7 7 7 7 7 7 6 6 6 6 6 6 7 7 7 6 6 6 6 6 7 7 7 7 6 6 6
8 8 7 7 7 7 6 6 6 6 7 7 6 6 6 6 6 6 6 6 6 6 6 6 6 6 6 6 6 6 6 6 6 6 6 6 6 6 6 6 6 6 5
8 7 7 7 6 6 6 6 6 6 6 6 6 6 6 6 6 6 6 6 6 6 6 6 6 6 6 6 6 6 6 6 6 6 6 5 5 6 6 6 6 6 5
7 7 7 6 6 6 6 5 5 5 6 6 6 6 5 5 5 5 6 5 5 5 5 5 5 5 5 5 5 5 5 5 5 5 5 5 5 5 5 5 5 5 5
7 7 6 6 5 5 5 5 5 5 5 5 5 5 5 5 5 5 5 5 5 5 5 5 5 5 5 5 5 5 5 5 5 5 5 5 5 5 5 5 5 5 5
6 6 5 5 5 5 5 5 4 4 4 4 5 5 4 4 5 4 4 4 4 4 4 4 4 4 4 4 4 4 4 4 4 4 4 4 4 4 4 4 4 4 4
6 5 5 5 4 4 4 4 4 4 4 4 4 4 4 4 4 4 4 4 4 4 4 4 4 4 4 4 4 4 4 4 4 4 4 4 4 4 4 4 4 4 4
5 5 4 4 4 4 4 4 4 4 4 4 4 4 4 4 4 4 4 4 4 4 4 4 4 4 4 4 4 4 4 3 3 4 3 4 3 3 3 3 3 3 3
4 4 4 4 4 3 3 3 4 4 3 3 3 3 3 4 4 4 3 3 3 3 3 3 3 3 3 3 3 3 3 3 3 3 3 3 3 3 3 3 3 3 3
4 4 3 3 3 3 3 3 3 3 3 3 3 3 3 3 3 3 3 3 3 3 3 3 3 3 3 3 3 3 3 3 3 2 2 2 2 2 2 2 2 2 2
3 3 3 3 3 2 2 3 3 3 3 2 2 3 3 3 3 2 3 3 2 2 2 2 2 2 2 2 2 2 2 2 2 2 2 2 2 2 2 2 2 1 1
2 2 2 2 2 2 2 2 2 2 2 2 2 2 2 2 2 2 2 2 2 2 2 2 2 2 2 2 2 2 2 2 2 1 1 1 1 1 1 1 1 1 1
1 1 1 1 1 1 2 2 2 2 2 2 2 2 2 2 2 1 1 1 1 1 1 1 1 1 1 1 1 1 1 1 1 1 1 1 1 1 1 1 1 1 1
0 0 1 1 1 1 1 1 1 1 2 1 1 1 1 1 1 1 1 1 1 1 1 1 1 1 1 1 1 1 1 1 0 0 0 0 0 0 0 0 1 1 0
-0 -0 -0 -0 -0 0 0 1 1 1 1 1 1 1 1 1 0 0 0 0 0 0 0 0 0 0 0 0 0 0 0 0 -0 -0 -0 -0 -0 0 0 -0 -0 -0 -0
-1 -1 -1 -1 -1 -0 -0 0 0 0 0 0 0 0 0 0 -0 -0 -0 -0 -0 -0 -0 -0 -0 -0 -0 -0 -0 -1 -1 -0 -0 -1 -1 -0 -0 -0 -0 -1 -1 -1 -1
-2 -2 -2 -1 -1 -1 -1 -1 -0 -0 -0 -0 -0 -0 -0 -0 -1 -1 -1 -1 -1 -1 -1 -1 -1 -1 -1 -1 -1 -1 -1 -1 -1 -1 -1 -1 -1 -1 -1 -1 -1 -2 -2
-2 -2 -2 -2 -2 -2 -1 -1 -1 -1 -1 -1 -1 -1 -1 -1 -1 -1 -1 -1 -1 -1 -1 -1 -1 -1 -1 -2 -2 -2 -2 -2 -2 -1 -2 -2 -2 -2 -2 -2 -2 -2 -2
-3 -3 -3 -3 -2 -2 -2 -2 -2 -1 -1 -1 -1 -1 -1 -1 -1 -2 -2 -2 -2 -2 -2 -2 -2 -2 -2 -2 -2 -2 -2 -2 -2 -2 -2 -2 -2 -2 -3 -3 -3 -3 -3
Wind_Speed
4 4 3 4 3 2 2 3 3 2 2 2 2 2 1 1 1 1 2 3 3 3 3 2 2 1 2 3 4 3 4 3 3 3 2 2 2 2 1 2 3 4 6
4 4 3 3 3 3 2 3 3 3 2 2 1 2 1 1 1 1 1 3 3 3 3 3 2 2 2 3 4 4 3 2 2 2 2 1 1 1 1 0 1 2 4
4 4 4 2 2 2 3 2 3 3 3 3 1 1 1 1 1 1 2 2 3 3 3 4 3 2 3 4 4 4 3 4 2 2 3 3 3 1 1 1 1 1 1
4 4 4 3 2 1 1 2 2 3 3 3 3 3 2 2 2 2 2 2 3 3 4 4 4 3 3 4 4 3 3 5 4 2 1 1 2 2 1 1 1 2 2
4 4 4 3 2 2 2 1 1 2 2 3 3 3 3 2 2 2 2 2 2 2 3 4 4 3 3 4 4 4 4 4 4 3 2 0 0 1 2 2 2 1 2
4 4 4 4 3 2 2 1 1 1 2 3 3 4 4 3 3 2 2 2 2 2 3 3 4 3 3 3 4 4 5 4 4 3 3 2 2 2 2 2 2 2 2
4 4 4 3 3 3 2 1 1 1 1 2 2 3 3 3 4 3 3 3 2 2 3 3 3 3 3 3 4 4 4 4 5 4 3 2 2 2 2 2 2 1 1
4 4 3 3 3 3 2 1 1 1 1 1 2 2 2 2 2 3 3 3 3 3 3 3 3 3 4 4 4 4 4 4 4 4 3 2 2 2 3 3 3 1 1
3 3 3 3 3 2 2 2 1 1 1 1 1 1 1 2 2 2 2 2 2 2 2 2 3 3 3 4 4 4 4 4 4 4 4 3 3 2 2 3 4 4 3
3 3 3 2 2 2 2 1 1 1 1 1 1 1 1 2 2 2 3 3 3 3 3 3 3 3 3 3 3 3 4 4 4 3 4 3 2 3 2 3 2 3 3
2 2 2 2 2 1 2 1 1 1 1 1 1 1 1 1 1 2 2 3 3 3 4 4 4 4 4 4 4 5 5 6 5 5 5 5 4 3 3 3 3 2 2
1 1 1 2 2 1 1 1 1 1 1 1 1 2 2 1 1 2 2 2 3 3 3 3 4 4 4 4 5 5 5 6 6 5 5 5 4 4 4 3 3 3 2
2 1 1 1 0 1 1 1 1 1 1 1 2 2 2 2 2 2 2 2 2 3 3 4 4 4 4 4 4 5 5 5 5 5 5 5 5 5 3 4 3 3 2
1 1 1 1 1 1 1 1 1 1 1 2 2 2 2 2 2 2 2 2 3 3 3 4 4 4 4 4 4 4 4 4 4 4 4 5 6 6 5 4 4 3 3
1 1 1 1 1 1 1 1 1 1 1 2 2 2 2 2 2 2 2 2 2 3 3 3 3 3 3 4 4 4 4 4 3 3 3 3 5 6 5 5 5 5 4
3 2 1 1 2 1 2 2 2 1 1 2 2 1 1 2 2 2 2 3 2 2 2 3 3 3 2 3 4 3 3 3 3 3 2 2 3 5 5 5 5 6 6
5 4 3 2 2 2 2 2 3 2 2 2 2 2 2 2 2 2 2 3 3 3 2 2 3 3 3 4 4 3 3 3 4 4 3 2 3 3 3 3 3 3 5
6 5 4 3 2 2 2 2 2 2 2 2 2 2 2 2 2 2 2 2 2 2 2 2 2 2 2 3 3 2 2 3 3 3 3 3 3 3 4 3 2 2 2
6 5 4 4 3 2 2 2 2 2 2 2 2 2 2 2 2 2 2 2 2 2 2 2 2 2 2 2 2 2 2 2 2 2 2 3 3 4 4 4 3 2 1
6 5 4 4 3 3 2 1 2 1 2 2 2 1 1 2 2 2 2 2 2 2 2 2 2 2 2 3 2 2 2 2 1 1 1 2 3 4 4 3 4 3 2
6 5 5 4 3 2 2 2 1 1 1 0 1 1 1 1 1 2 2 2 2 2 2 2 2 2 2 3 3 3 2 2 2 1 1 1 2 3 3 3 3 4 3
6 5 4 5 4 3 1 1 2 2 1 1 1 1 2 2 2 2 2 2 3 3 2 2 2 2 2 2 3 3 2 2 1 1 0 1 1 1 2 2 3 3 2
5 4 4 4 4 3 2 1 2 1 1 2 2 2 3 2 3 3 3 2 2 2 2 2 2 2 2 2 3 2 2 2 2 1 1 1 1 1 0 1 2 2 2
5 4 4 4 4 3 3 2 2 1 2 2 2 2 3 3 2 2 2 2 2 2 2 2 2 1 2 2 2 1 2 2 2 2 2 2 2 2 1 1 0 1 1
5 4 3 4 4 3 3 3 3 2 3 2 2 2 2 3 3 3 2 2 2 2 2 1 1 1 1 0 1 1 1 1 1 1 2 2 2 2 1 1 1 1 1
4 4 3 3 4 4 4 4 4 3 3 2 2 2 2 3 3 3 3 5 3 4 4 3 2 2 1 1 1 2 2 2 2 2 1 1 1 0 0 1 1 0 0
Wind_Direction
173 158 149 146 147 160 168 165 164 166 138 142 165 168 194 184 183 190 166 157 153 150 129 136 147 150 168 162 144 135 123 111 110 100 78 34 33 40 49 94 124 134 141
163 147 135 139 156 168 176 173 161 157 157 177 179 167 161 169 193 192 151 153 156 152 142 137 152 163 166 164 158 147 138 142 138 129 114 108 357 351 340 9 136 137 135
167 150 137 119 135 161 171 175 164 165 170 167 148 131 122 142 180 171 177 172 168 158 145 143 155 172 171 174 172 163 151 160 173 156 149 161 193 223 256 244 173 146 130
152 142 139 141 157 162 149 158 163 162 165 162 168 179 183 197 202 181 177 171 172 169 157 153 161 175 176 176 178 163 162 162 173 192 220 185 149 157 180 263 240 194 187
140 139 138 143 136 119 123 146 163 162 166 177 184 189 200 205 186 168 167 173 178 176 160 157 162 177 183 181 177 167 170 174 176 181 186 177 97 142 163 208 223 239 221
125 127 122 121 114 104 106 133 151 164 165 180 195 191 196 199 189 184 180 184 177 179 172 169 171 178 180 181 177 177 178 181 179 180 177 176 179 191 177 195 209 231 241
129 127 120 122 121 115 109 111 142 171 172 185 204 195 191 198 202 199 190 190 190 190 191 187 182 182 184 183 178 175 181 179 179 185 191 199 199 191 179 169 190 226 263
129 130 130 132 133 131 133 144 199 199 187 197 208 197 191 192 206 203 190 189 198 199 193 185 191 189 186 190 184 178 184 181 180 189 188 202 202 190 187 177 170 188 256
126 134 134 134 139 145 156 169 202 201 195 221 204 197 198 198 205 200 191 191 194 190 179 186 198 200 191 190 184 187 187 184 187 191 193 208 210 200 198 178 173 179 214
130 132 135 135 140 148 153 146 191 209 200 203 209 224 208 210 218 204 198 190 193 184 179 195 205 204 196 195 190 189 188 192 199 196 196 214 216 202 194 181 192 186 192
141 132 130 132 136 145 161 163 192 188 212 210 201 206 221 215 203 199 202 196 191 183 187 197 204 208 201 195 196 195 187 194 203 205 203 214 209 202 191 180 193 204 184
103 109 117 132 142 171 177 174 177 191 211 213 206 201 202 199 203 211 207 191 187 190 192 194 199 206 204 200 198 198 192 193 199 204 204 210 203 198 188 182 196 200 188
84 68 56 64 191 207 198 182 191 205 208 203 200 205 194 195 209 211 203 187 189 198 205 200 202 206 205 205 203 199 198 199 203 201 205 208 194 202 194 187 192 193 187
88 65 9 355 340 309 240 209 210 199 213 212 203 207 204 200 204 208 204 195 194 201 207 207 206 206 207 208 202 197 196 199 207 206 207 207 201 200 193 195 193 186 184
328 324 328 323 320 328 314 264 230 206 210 215 218 214 199 197 200 202 198 193 196 208 203 203 205 206 207 207 198 191 190 193 195 198 210 208 201 203 203 201 193 187 192
307 299 308 303 288 296 305 303 276 233 209 212 225 221 201 204 204 208 204 196 194 201 191 196 198 198 208 207 204 197 188 188 191 200 206 197 195 197 202 203 203 200 199
325 319 307 289 285 282 287 280 285 268 223 218 219 209 211 212 209 207 206 201 198 194 190 192 186 191 193 186 191 195 193 193 195 196 195 207 203 191 182 182 196 217 229
318 319 319 302 292 295 296 285 286 262 220 218 217 207 202 207 192 182 200 201 185 180 177 177 174 165 168 170 172 176 175 183 193 192 188 190 198 192 176 164 170 201 238
318 313 311 315 316 306 292 283 289 255 212 214 215 206 199 192 175 178 185 185 169 163 157 157 146 141 145 145 139 153 154 149 161 174 176 183 188 188 175 166 170 182 234
326 324 330 333 326 322 325 296 294 267 231 220 208 183 179 175 174 171 161 148 142 144 133 124 121 129 129 122 114 117 141 136 137 129 149 177 183 182 176 181 180 193 209
331 335 341 333 326 331 341 308 302 279 267 222 118 132 140 142 133 127 126 124 122 114 112 107 97 108 116 122 118 105 122 141 150 168 191 198 190 189 194 199 200 207 195
335 342 341 333 331 331 331 305 305 309 354 86 107 122 121 110 99 100 100 110 119 115 110 105 92 82 90 99 113 104 89 85 118 156 156 173 197 217 222 216 198 192 171
333 338 336 332 328 334 344 330 321 343 100 113 115 112 109 106 106 108 107 109 117 124 119 110 100 77 65 69 78 89 83 64 53 66 81 84 56 7 225 191 198 195 165
334 335 337 337 337 354 1 355 354 35 96 108 113 113 111 104 100 98 99 106 110 117 115 112 108 90 70 60 62 73 87 80 69 71 77 68 63 46 69 90 102 121 162
336 341 345 346 347 2 11 10 17 54 81 85 85 93 102 114 109 97 93 103 96 116 119 123 129 132 124 70 38 44 63 85 116 87 62 55 54 49 57 72 84 90 101
339 346 354 356 359 19 25 22 24 48 84 86 81 85 91 98 103 100 75 61 74 64 61 66 75 63 75 79 69 60 63 65 87 70 89 82 88 94 99 110 79 77 184
Height
1473 1474 1475 1475 1476 1476 1476 1477 1478 1479 1480 1481 1483 1484 1485 1486 1488 1489 1490 1491 1492 1494 1496 1497 1499 1500 1502 1504 1506 1508 1510 1512 1514 1516 1519 1521 1523 1524 1526 1527 1529 1530 1532
1470 1471 1472 1472 1473 1473 1474 1475 1476 1477 1478 1479 1480 1482 1483 1484 1485 1486 1487 1488 1490 1491 1493 1494 1496 1498 1499 1501 1503 1505 1507 1509 1512 1514 1516 1518 1521 1522 1524 1525 1526 1527 1529
1467 1468 1469 1470 1471 1471 1472 1472 1473 1474 1475 1477 1478 1479 1480 1481 1482 1483 1484 1486 1487 1489 1490 1491 1493 1495 1497 1498 1500 1502 1504 1506 1509 1512 1514 1516 1516 1518 1520 1521 1523 1524 1526
1464 1465 1466 1467 1468 1469 1469 1470 1471 1472 1473 1474 1475 1476 1477 1478 1479 1480 1481 1483 1484 1486 1487 1489 1491 1492 1494 1496 1498 1500 1502 1504 1505 1508 1510 1513 1513 1515 1516 1519 1520 1521 1523
1462 1463 1464 1465 1466 1467 1467 1468 1469 1469 1470 1471 1472 1473 1474 1475 1477 1478 1479 1480 1481 1483 1484 1486 1488 1489 1491 1493 1495 1496 1499 1501 1502 1504 1506 1509 1510 1512 1513 1514 1516 1518 1519
1460 1461 1462 1463 1464 1465 1465 1466 1467 1467 1468 1469 1470 1470 1471 1473 1473 1474 1476 1477 1478 1480 1481 1483 1484 1486 1488 1490 1491 1493 1495 1497 1499 1501 1503 1505 1507 1508 1509 1511 1512 1514 1515
1458 1459 1460 1461 1462 1462 1463 1464 1464 1465 1466 1466 1467 1468 1469 1470 1470 1471 1473 1474 1475 1476 1478 1480 1481 1483 1485 1486 1488 1489 1491 1493 1495 1497 1499 1501 1503 1505 1506 1508 1509 1510 1511
1457 1458 1459 1460 1460 1461 1461 1462 1462 1463 1463 1464 1465 1465 1466 1467 1468 1469 1470 1471 1472 1473 1475 1477 1478 1479 1481 1483 1484 1486 1488 1489 1491 1493 1495 1497 1499 1501 1503 1504 1506 1507 1507
1456 1457 1458 1459 1459 1459 1459 1460 1460 1460 1461 1462 1462 1463 1464 1464 1465 1466 1467 1468 1469 1471 1472 1473 1475 1476 1478 1479 1481 1482 1484 1486 1487 1489 1491 1493 1495 1497 1498 1500 1502 1504 1503
1455 1456 1457 1457 1457 1458 1458 1458 1458 1458 1459 1459 1459 1460 1461 1462 1463 1463 1464 1465 1467 1468 1469 1470 1471 1473 1474 1476 1477 1479 1480 1482 1484 1486 1487 1489 1491 1492 1494 1495 1497 1499 1500
1454 1455 1455 1455 1456 1456 1456 1455 1456 1456 1456 1456 1456 1457 1458 1459 1460 1460 1461 1462 1463 1464 1465 1467 1468 1469 1470 1472 1473 1475 1476 1478 1479 1481 1483 1485 1486 1488 1489 1491 1493 1495 1496
1452 1453 1453 1454 1453 1453 1453 1453 1453 1453 1453 1454 1454 1454 1455 1456 1456 1457 1458 1459 1460 1461 1462 1463 1464 1465 1466 1468 1469 1471 1472 1473 1475 1476 1478 1480 1481 1483 1484 1486 1488 1490 1491
1451 1452 1451 1451 1451 1451 1451 1451 1451 1451 1451 1451 1451 1451 1452 1452 1453 1454 1455 1456 1457 1457 1458 1459 1460 1461 1462 1464 1465 1467 1468 1469 1471 1472 1473 1475 1476 1478 1479 1481 1483 1485 1486
1450 1450 1450 1449 1449 1449 1448 1448 1448 1448 1448 1448 1448 1448 1449 1449 1450 1451 1451 1452 1453 1454 1455 1456 1457 1458 1459 1460 1461 1463 1464 1465 1467 1468 1469 1470 1472 1473 1475 1477 1478 1480 1482
1448 1448 1448 1447 1447 1446 1446 1445 1445 1445 1444 1445 1445 1445 1446 1446 1447 1447 1448 1449 1450 1451 1451 1452 1453 1454 1455 1456 1458 1459 1460 1461 1463 1464 1465 1466 1468 1469 1471 1473 1474 1476 1477
1446 1446 1445 1445 1444 1444 1443 1442 1442 1441 1441 1441 1441 1442 1443 1443 1444 1444 1445 1445 1446 1447 1448 1448 1449 1451 1452 1453 1454 1455 1456 1457 1458 1459 1461 1462 1464 1465 1467 1468 1470 1472 1473
1444 1443 1443 1442 1442 1441 1440 1439 1438 1438 1438 1438 1438 1439 1440 1440 1441 1441 1441 1442 1442 1443 1444 1445 1446 1447 1448 1450 1451 1452 1453 1453 1454 1456 1457 1458 1460 1462 1463 1464 1465 1467 1468
1442 1441 1440 1439 1438 1438 1437 1436 1436 1435 1435 1435 1435 1436 1436 1437 1437 1438 1438 1438 1439 1440 1441 1442 1443 1444 1445 1446 1447 1448 1449 1450 1451 1452 1454 1455 1456 1458 1459 1460 1461 1462 1464
1440 1439 1437 1436 1435 1435 1434 1433 1432 1432 1432 1432 1432 1432 1433 1433 1434 1435 1435 1436 1437 1437 1438 1440 1440 1441 1442 1444 1444 1445 1446 1446 1448 1449 1451 1452 1453 1454 1456 1457 1458 1458 1459
1437 1436 1434 1433 1432 1432 1431 1430 1430 1429 1429 1429 1429 1430 1430 1431 1431 1432 1433 1434 1435 1436 1436 1437 1438 1439 1440 1441 1442 1443 1443 1444 1445 1446 1447 1449 1450 1451 1452 1453 1454 1454 1455
1435 1433 1432 1431 1430 1429 1429 1428 1427 1427 1427 1427 1427 1427 1428 1429 1430 1430 1431 1432 1433 1434 1434 1435 1436 1437 1438 1438 1439 1440 1441 1441 1442 1443 1444 1446 1447 1448 1449 1450 1451 1452 1453
1432 1431 1430 1428 1428 1427 1427 1426 1425 1425 1425 1425 1425 1425 1426 1427 1428 1428 1429 1430 1431 1432 1432 1433 1434 1435 1436 1437 1437 1438 1439 1440 1440 1441 1442 1443 1444 1445 1446 1447 1448 1449 1450
1430 1429 1428 1427 1426 1425 1425 1424 1423 1423 1423 1423 1423 1424 1424 1425 1426 1427 1428 1428 1429 1430 1431 1431 1432 1433 1434 1435 1436 1436 1437 1438 1438 1439 1440 1440 1441 1442 1443 1444 1445 1446 1446
1428 1427 1426 1425 1424 1423 1423 1422 1422 1421 1421 1421 1421 1422 1422 1423 1424 1425 1426 1427 1428 1428 1429 1430 1431 1431 1432 1432 1433 1434 1435 1435 1436 1436 1437 1438 1438 1439 1440 1441 1441 1442 1443
1427 1426 1424 1423 1422 1422 1421 1421 1420 1420 1420 1420 1420 1421 1421 1422 1422 1424 1425 1426 1427 1428 1428 1429 1429 1429 1430 1431 1432 1432 1433 1433 1434 1434 1434 1435 1436 1436 1437 1437 1438 1439 1439
1426 1424 1423 1422 1421 1421 1420 1420 1419 1419 1419 1419 1419 1419 1420 1420 1421 1422 1423 1425 1426 1427 1427 1428 1428 1428 1429 1430 1430 1431 1431 1431 1432 1432 1432 1433 1433 1434 1434 1434 1435 1435 1436